KG7KID-6 Weather Reports


Display with metric or nautical units.
time (UTC)temp
F
wind
direction
speed
MPH
gust
MPH
rain 1hr
in
rain 24hr
in
rain mn
in
humidity
%
barometer
mb
20210923212558 93 188 2.0 9.0 0.00 0.00 0.00 15 929.8
20210923212058 93 203 4.0 9.0 0.00 0.00 0.00 16 929.8
20210923211558 93 218 3.0 6.0 0.00 0.00 0.00 15 929.8
20210923211057 93 127 2.0 5.0 0.00 0.00 0.00 15 929.9
20210923210630 93 191 1.0 6.0 0.00 0.00 0.00 15 930.1
20210923210557 93 191 1.0 6.0 0.00 0.00 0.00 15 930.1
20210923205558 93 167 5.0 12.0 0.00 0.00 0.00 15 930.2
20210923205141 92 228 5.0 12.0 0.00 0.00 0.00 15 930.2
20210923205058 92 228 5.0 12.0 0.00 0.00 0.00 15 930.2
20210923204558 92 285 2.0 8.0 0.00 0.00 0.00 14 930.3
20210923204057 93 185 3.0 10.0 0.00 0.00 0.00 14 930.4
20210923203059 93 186 2.0 9.0 0.00 0.00 0.00 15 930.5
20210923202057 92 163 5.0 10.0 0.00 0.00 0.00 14 930.7
20210923201558 92 124 2.0 10.0 0.00 0.00 0.00 14 930.7
20210923201058 92 95 2.0 10.0 0.00 0.00 0.00 14 930.8
20210923200633 92 150 5.0 10.0 0.00 0.00 0.00 15 930.9
20210923200557 92 150 5.0 10.0 0.00 0.00 0.00 15 930.9
20210923200058 91 119 2.0 5.0 0.00 0.00 0.00 15 931.0
20210923195558 91 0 0.0 8.0 0.00 0.00 0.00 15 931.1
20210923195057 91 330 3.0 8.0 0.00 0.00 0.00 15 931.2
20210923194558 91 338 2.0 8.0 0.00 0.00 0.00 15 931.2
20210923194102 91 348 3.0 6.0 0.00 0.00 0.00 15 931.3
20210923194058 91 348 3.0 6.0 0.00 0.00 0.00 15 931.3
20210923193557 91 343 1.0 5.0 0.00 0.00 0.00 14 931.4
20210923193058 91 113 1.0 5.0 0.00 0.00 0.00 14 931.6
20210923192558 91 94 1.0 5.0 0.00 0.00 0.00 16 931.6
20210923191608 90 155 1.0 5.0 0.00 0.00 0.00 14 931.7
20210923191107 90 240 1.0 6.0 0.00 0.00 0.00 16 931.8
20210923190108 89 251 2.0 8.0 0.00 0.00 0.00 19 932.0
20210923185107 88 180 1.0 6.0 0.00 0.00 0.00 22 932.1
20210923184610 88 236 3.0 6.0 0.00 0.00 0.00 23 932.1
20210923184107 87 0 0.0 7.0 0.00 0.00 0.00 23 932.2
20210923183107 87 0 0.0 6.0 0.00 0.00 0.00 24 932.4
20210923182608 86 179 1.0 6.0 0.00 0.00 0.00 24 932.4
20210923182106 86 143 1.0 7.0 0.00 0.00 0.00 24 932.5
20210923181608 85 135 2.0 7.0 0.00 0.00 0.00 25 932.6
20210923181108 85 108 2.0 5.0 0.00 0.00 0.00 25 932.6
20210923180108 84 192 2.0 6.0 0.00 0.00 0.00 26 932.8
20210923175107 84 173 1.0 6.0 0.00 0.00 0.00 26 933.0
20210923174108 83 175 3.0 6.0 0.00 0.00 0.00 26 933.2
20210923173608 82 266 2.0 6.0 0.00 0.00 0.00 27 933.2
20210923172932 81 160 1.0 5.0 0.00 0.00 0.00 27 933.2
20210923172432 81 172 1.0 5.0 0.00 0.00 0.00 27 933.4
20210923171932 81 0 0.0 4.0 0.00 0.00 0.00 28 933.4
20210923171432 81 205 1.0 5.0 0.00 0.00 0.00 28 933.6
20210923170933 81 0 0.0 8.0 0.00 0.00 0.00 28 933.7
20210923165933 79 0 0.0 5.0 0.00 0.00 0.00 30 933.7
20210923165509 78 111 1.0 4.0 0.00 0.00 0.00 30 933.8
20210923165433 78 111 1.0 4.0 0.00 0.00 0.00 30 933.8
20210923164432 78 0 0.0 4.0 0.00 0.00 0.00 31 933.8
20210923163933 77 112 2.0 4.0 0.00 0.00 0.00 31 933.9
20210923162613 75 185 1.0 5.0 0.00 0.00 0.00 33 934.1
20210923162114 75 185 1.0 6.0 0.00 0.00 0.00 34 934.1
20210923161614 75 176 1.0 6.0 0.00 0.00 0.00 35 934.1
20210923161113 74 157 2.0 5.0 0.00 0.00 0.00 35 934.1
20210923160614 74 153 1.0 4.0 0.00 0.00 0.00 37 934.1
20210923160114 73 133 1.0 4.0 0.00 0.00 0.00 36 934.1
20210923155615 73 104 1.0 4.0 0.00 0.00 0.00 37 934.2
20210923155113 72 0 0.0 4.0 0.00 0.00 0.00 37 934.2
20210923154614 73 97 2.0 4.0 0.00 0.00 0.00 38 934.2
20210923154151 72 0 0.0 2.0 0.00 0.00 0.00 36 934.2
20210923154113 72 0 0.0 2.0 0.00 0.00 0.00 36 934.2
20210923153647 72 0 0.0 1.0 0.00 0.00 0.00 37 934.2
20210923153614 72 0 0.0 1.0 0.00 0.00 0.00 37 934.2
20210923152614 70 0 0.0 3.0 0.00 0.00 0.00 38 934.2
20210923152113 70 0 0.0 3.0 0.00 0.00 0.00 40 934.3
20210923151616 69 0 0.0 3.0 0.00 0.00 0.00 41 934.4
20210923151113 68 0 0.0 2.0 0.00 0.00 0.00 43 934.3
20210923150613 67 0 0.0 3.0 0.00 0.00 0.00 43 934.3
20210923150115 66 45 1.0 4.0 0.00 0.00 0.00 43 934.3
20210923145616 66 45 1.0 4.0 0.00 0.00 0.00 43 934.3
20210923145204 65 37 2.0 3.0 0.00 0.00 0.00 44 934.3
20210923145113 65 37 2.0 3.0 0.00 0.00 0.00 44 934.3
20210923144704 65 0 0.0 3.0 0.00 0.00 0.00 46 934.4
20210923144614 65 0 0.0 3.0 0.00 0.00 0.00 46 934.4
20210923144113 64 0 0.0 4.0 0.00 0.00 0.00 45 934.4
20210923143613 63 36 2.0 4.0 0.00 0.00 0.00 46 934.5
20210923143115 63 22 2.0 4.0 0.00 0.00 0.00 47 934.5
20210923142614 62 22 1.0 4.0 0.00 0.00 0.00 48 934.5
20210923142149 61 22 1.0 4.0 0.00 0.00 0.00 49 934.4
20210923142113 61 22 1.0 4.0 0.00 0.00 0.00 49 934.4
20210923141613 61 18 2.0 4.0 0.00 0.00 0.00 49 934.4
20210923141201 60 16 1.0 2.0 0.00 0.00 0.00 51 934.5
20210923141113 60 16 1.0 2.0 0.00 0.00 0.00 51 934.5
20210923140647 59 0 0.0 3.0 0.00 0.00 0.00 52 934.4
20210923140614 59 0 0.0 3.0 0.00 0.00 0.00 52 934.4
20210923140114 58 0 0.0 3.0 0.00 0.00 0.00 53 934.3
20210923135613 58 0 0.0 3.0 0.00 0.00 0.00 53 934.3
20210923135122 57 0 0.0 2.0 0.00 0.00 0.00 53 934.2
20210923134646 57 0 0.0 3.0 0.00 0.00 0.00 53 934.2
20210923134613 57 0 0.0 3.0 0.00 0.00 0.00 53 934.2
20210923134147 57 16 1.0 3.0 0.00 0.00 0.00 53 934.2
20210923134113 57 16 1.0 3.0 0.00 0.00 0.00 53 934.2
20210923133114 58 0 0.0 2.0 0.00 0.00 0.00 53 934.2
20210923132613 57 0 0.0 2.0 0.00 0.00 0.00 53 934.1
20210923132209 58 16 1.0 2.0 0.00 0.00 0.00 53 934.0
20210923132113 58 16 1.0 2.0 0.00 0.00 0.00 53 934.0
20210923131613 58 0 0.0 2.0 0.00 0.00 0.00 53 934.1
20210923131113 58 0 0.0 3.0 0.00 0.00 0.00 53 934.1
20210923130613 58 0 0.0 3.0 0.00 0.00 0.00 52 934.0
20210923125613 59 0 0.0 3.0 0.00 0.00 0.00 51 934.1
20210923125147 59 16 1.0 3.0 0.00 0.00 0.00 50 934.0
20210923125113 59 16 1.0 3.0 0.00 0.00 0.00 50 934.0
20210923124646 59 0 0.0 3.0 0.00 0.00 0.00 50 934.0
20210923124613 59 0 0.0 3.0 0.00 0.00 0.00 50 934.0
20210923124149 59 16 1.0 3.0 0.00 0.00 0.00 51 934.0
20210923124113 59 16 1.0 3.0 0.00 0.00 0.00 51 934.0
20210923123614 59 16 1.0 3.0 0.00 0.00 0.00 51 934.0
20210923122613 58 0 0.0 3.0 0.00 0.00 0.00 52 934.0
20210923122113 58 16 1.0 5.0 0.00 0.00 0.00 53 934.0
20210923121613 58 16 2.0 5.0 0.00 0.00 0.00 53 934.0
20210923121113 58 8 1.0 3.0 0.00 0.00 0.00 53 934.0
20210923120613 58 4 1.0 3.0 0.00 0.00 0.00 52 934.1
20210923115614 58 0 0.0 4.0 0.00 0.00 0.00 51 934.0
20210923115113 59 4 1.0 4.0 0.00 0.00 0.00 51 934.0
20210923114613 59 0 0.0 0.0 0.00 0.00 0.00 50 934.0
20210923114113 60 0 0.0 0.0 0.00 0.00 0.00 49 933.9
20210923113613 60 0 0.0 1.0 0.00 0.00 0.00 50 933.9
20210923112525 59 0 0.0 0.0 0.00 0.00 0.00 50 933.9
20210923112025 59 0 0.0 0.0 0.00 0.00 0.00 50 933.9
20210923111525 59 0 0.0 1.0 0.00 0.00 0.00 50 934.0
20210923111028 60 0 0.0 3.0 0.00 0.00 0.00 49 933.9
20210923110525 60 14 1.0 3.0 0.00 0.00 0.00 49 934.0
20210923110025 60 15 1.0 3.0 0.00 0.00 0.00 49 934.0
20210923105558 60 15 1.0 5.0 0.00 0.00 0.00 49 933.9
20210923105525 60 15 1.0 5.0 0.00 0.00 0.00 49 933.9
20210923105025 60 0 0.0 7.0 0.00 0.00 0.00 49 933.8
20210923104604 61 14 2.0 7.0 0.00 0.00 0.00 48 933.7
20210923104525 61 14 2.0 7.0 0.00 0.00 0.00 48 933.7
20210923104025 61 16 1.0 5.0 0.00 0.00 0.00 47 933.7
20210923103525 61 0 0.0 2.0 0.00 0.00 0.00 47 933.6
20210923102306 61 0 0.0 2.0 0.00 0.00 0.00 47 934.0
20210923102221 61 0 0.0 2.0 0.00 0.00 0.00 47 934.0
20210923101723 61 0 0.0 4.0 0.00 0.00 0.00 47 934.2
20210923101222 61 18 1.0 4.0 0.00 0.00 0.00 47 934.2
20210923100804 61 17 1.0 3.0 0.00 0.00 0.00 47 934.1
20210923100724 61 17 1.0 3.0 0.00 0.00 0.00 47 934.1
20210923100222 62 17 1.0 3.0 0.00 0.00 0.00 46 934.1
20210923095721 62 0 0.0 3.0 0.00 0.00 0.00 46 934.1
20210923094307 63 21 1.0 5.0 0.00 0.00 0.00 44 934.1
20210923093808 64 25 1.0 7.0 0.00 0.00 0.00 43 934.1
20210923092805 63 293 2.0 6.0 0.00 0.00 0.00 45 934.1
20210923092354 63 14 1.0 3.0 0.00 0.00 0.00 45 934.1
20210923092308 63 14 1.0 3.0 0.00 0.00 0.00 45 934.1
20210923091843 63 14 2.0 3.0 0.00 0.00 0.00 44 934.2
20210923091807 63 14 2.0 3.0 0.00 0.00 0.00 44 934.2
20210923085309 64 0 0.0 2.0 0.00 0.00 0.00 43 934.3
20210923084309 65 0 0.0 2.0 0.00 0.00 0.00 42 934.4
20210923082805 65 0 0.0 2.0 0.00 0.00 0.00 43 934.5
20210923082340 65 0 0.0 2.0 0.00 0.00 0.00 42 934.5
20210923082307 65 0 0.0 2.0 0.00 0.00 0.00 42 934.5
20210923080805 65 0 0.0 2.0 0.00 0.00 0.00 42 934.5
20210923080309 66 0 0.0 2.0 0.00 0.00 0.00 41 934.5
20210923074842 66 0 0.0 0.0 0.00 0.00 0.00 41 934.5
20210923074806 66 0 0.0 0.0 0.00 0.00 0.00 41 934.5
20210923074306 67 0 0.0 0.0 0.00 0.00 0.00 41 934.5
20210923073805 67 0 0.0 0.0 0.00 0.00 0.00 40 934.5
20210923073308 67 0 0.0 3.0 0.00 0.00 0.00 40 934.6
20210923072808 67 0 0.0 3.0 0.00 0.00 0.00 40 934.5
20210923070805 69 0 0.0 5.0 0.00 0.00 0.00 38 934.4
20210923070306 68 13 1.0 6.0 0.00 0.00 0.00 39 934.4
20210923065307 68 11 3.0 8.0 0.00 0.00 0.00 38 934.3
20210923064305 69 15 5.0 8.0 0.00 0.00 0.00 37 934.2
20210923063805 69 10 5.0 8.0 0.00 0.00 0.00 37 934.3
20210923062308 69 17 5.0 8.0 0.00 0.00 0.00 38 934.4
20210923061518 69 22 4.0 8.0 0.00 0.00 0.00 37 934.4
20210923061110 69 29 3.0 8.0 0.00 0.00 0.00 37 934.3
20210923061018 69 29 3.0 8.0 0.00 0.00 0.00 37 934.3
20210923060607 69 16 4.0 8.0 0.00 0.00 0.00 37 934.3
20210923060517 69 16 4.0 8.0 0.00 0.00 0.00 37 934.3
20210923055938 70 15 5.0 8.0 0.00 0.00 0.00 36 934.3
20210923055437 70 20 4.0 9.0 0.00 0.00 0.00 36 934.3
20210923054938 70 14 5.0 9.0 0.00 0.00 0.00 36 934.3
20210923054510 70 20 5.0 9.0 0.00 0.00 0.00 36 934.4
20210923054437 70 20 5.0 9.0 0.00 0.00 0.00 36 934.4
20210923053436 71 14 5.0 10.0 0.00 0.00 0.00 35 934.4
20210923052938 71 16 6.0 10.0 0.00 0.00 0.00 35 934.3
20210923052436 71 13 5.0 8.0 0.00 0.00 0.00 35 934.3
20210923051938 71 15 5.0 8.0 0.00 0.00 0.00 35 934.3
20210923051255 72 10 4.0 7.0 0.00 0.00 0.00 33 934.3
20210923051214 72 10 4.0 7.0 0.00 0.00 0.00 33 934.3
20210923050715 72 16 5.0 7.0 0.00 0.00 0.00 33 934.2
20210923050253 73 16 4.0 7.0 0.00 0.00 0.00 33 934.2
20210923050214 73 16 4.0 7.0 0.00 0.00 0.00 33 934.2
20210923045715 73 17 4.0 7.0 0.00 0.00 0.00 33 934.2
20210923045214 74 12 3.0 7.0 0.00 0.00 0.00 32 934.2
20210923044805 74 18 4.0 8.0 0.00 0.00 0.00 32 934.1
20210923044714 74 18 4.0 8.0 0.00 0.00 0.00 32 934.1
20210923043714 75 13 4.0 7.0 0.00 0.00 0.00 31 934.2
20210923043215 76 11 3.0 7.0 0.00 0.00 0.00 30 934.2
20210923042714 76 19 3.0 7.0 0.00 0.00 0.00 30 934.1
20210923041754 77 31 3.0 5.0 0.00 0.00 0.00 28 934.1
20210923041714 77 31 3.0 5.0 0.00 0.00 0.00 28 934.1
20210923040714 78 0 0.0 1.0 0.00 0.00 0.00 27 934.1
20210923040214 79 0 0.0 2.0 0.00 0.00 0.00 27 934.1
20210923035716 80 0 0.0 2.0 0.00 0.00 0.00 26 934.1
20210923034714 82 0 0.0 1.0 0.00 0.00 0.00 25 934.2
20210923034300 83 0 0.0 8.0 0.00 0.00 0.00 24 934.1
20210923034214 83 0 0.0 8.0 0.00 0.00 0.00 24 934.1
20210923033750 83 0 0.0 9.0 0.00 0.00 0.00 24 934.1
20210923033714 83 0 0.0 9.0 0.00 0.00 0.00 24 934.1
20210923033215 83 131 4.0 9.0 0.00 0.00 0.00 24 934.0
20210923032714 82 158 1.0 5.0 0.00 0.00 0.00 24 934.1
20210923032253 83 0 0.0 3.0 0.00 0.00 0.00 24 934.0
20210923032216 83 0 0.0 3.0 0.00 0.00 0.00 24 934.0
20210923031714 83 0 0.0 13.0 0.00 0.00 0.00 24 934.0
20210923031216 83 147 4.0 13.0 0.00 0.00 0.00 24 934.0
20210923030750 83 188 4.0 10.0 0.00 0.00 0.00 24 933.8
20210923030715 83 188 4.0 10.0 0.00 0.00 0.00 24 933.8
20210923030214 83 0 0.0 3.0 0.00 0.00 0.00 24 933.8
20210923025803 83 0 0.0 3.0 0.00 0.00 0.00 23 933.7
20210923025714 83 0 0.0 3.0 0.00 0.00 0.00 23 933.7
20210923025214 84 0 0.0 4.0 0.00 0.00 0.00 23 933.8
20210923024715 84 167 1.0 8.0 0.00 0.00 0.00 23 933.7
20210923024216 84 145 4.0 8.0 0.00 0.00 0.00 23 933.5
20210923023752 84 189 2.0 7.0 0.00 0.00 0.00 23 933.5
20210923023714 84 189 2.0 7.0 0.00 0.00 0.00 23 933.5
20210923023214 84 0 0.0 8.0 0.00 0.00 0.00 23 933.5
20210923022751 85 167 2.0 8.0 0.00 0.00 0.00 23 933.4
20210923022715 85 167 2.0 8.0 0.00 0.00 0.00 23 933.4
20210923021748 85 156 1.0 7.0 0.00 0.00 0.00 22 933.3
20210923021714 85 156 1.0 7.0 0.00 0.00 0.00 22 933.3
20210923021215 85 151 1.0 7.0 0.00 0.00 0.00 22 933.2
20210923020803 85 171 1.0 6.0 0.00 0.00 0.00 22 933.2
20210923020715 85 171 1.0 6.0 0.00 0.00 0.00 22 933.2
20210923020214 86 164 2.0 9.0 0.00 0.00 0.00 22 933.2
20210923015247 86 140 4.0 10.0 0.00 0.00 0.00 23 933.1
20210923015214 86 140 4.0 10.0 0.00 0.00 0.00 23 933.1
20210923014750 87 145 2.0 9.0 0.00 0.00 0.00 22 933.2
20210923014714 87 145 2.0 9.0 0.00 0.00 0.00 22 933.2
20210923014215 87 162 4.0 12.0 0.00 0.00 0.00 22 933.1
20210923013215 86 139 7.0 10.0 0.00 0.00 0.00 23 933.1
20210923012715 87 154 2.0 7.0 0.00 0.00 0.00 22 933.1
20210923011714 88 0 0.0 5.0 0.00 0.00 0.00 21 933.0
20210923011215 88 0 0.0 5.0 0.00 0.00 0.00 20 933.0
20210923010714 89 170 2.0 5.0 0.00 0.00 0.00 20 933.0
20210923010214 90 177 1.0 6.0 0.00 0.00 0.00 19 933.0
20210923005215 91 167 3.0 6.0 0.00 0.00 0.00 18 932.9
20210923004714 91 155 1.0 5.0 0.00 0.00 0.00 19 932.9
20210923004215 92 175 1.0 7.0 0.00 0.00 0.00 18 932.9
20210923003714 92 197 4.0 7.0 0.00 0.00 0.00 17 933.0
20210923003214 92 147 1.0 10.0 0.00 0.00 0.00 18 933.0
20210923002714 92 153 5.0 12.0 0.00 0.00 0.00 19 933.0
20210923001714 93 157 3.0 9.0 0.00 0.00 0.00 18 932.9
20210923001215 93 174 4.0 11.0 0.00 0.00 0.00 18 933.0
20210923000714 93 178 3.0 11.0 0.00 0.00 0.00 19 933.0
20210923000214 93 162 3.0 11.0 0.00 0.00 0.00 18 933.2
20210922235714 93 169 5.0 12.0 0.00 0.00 0.00 18 933.1
20210922235214 94 175 6.0 12.0 0.00 0.00 0.00 18 933.2
20210922234714 94 143 2.0 10.0 0.00 0.00 0.00 17 933.2
20210922234214 94 167 5.0 11.0 0.00 0.00 0.00 17 933.3
20210922233714 94 178 4.0 13.0 0.00 0.00 0.00 17 933.3
20210922233215 95 195 4.0 13.0 0.00 0.00 0.00 16 933.4
20210922232803 94 171 6.0 12.0 0.00 0.00 0.00 17 933.3
20210922232714 94 171 6.0 12.0 0.00 0.00 0.00 17 933.3
20210922231714 94 190 5.0 12.0 0.00 0.00 0.00 17 933.4
20210922231214 94 155 5.0 12.0 0.00 0.00 0.00 17 933.5
20210922230714 95 139 8.0 12.0 0.00 0.00 0.00 16 933.5
20210922230215 95 180 6.0 13.0 0.00 0.00 0.00 16 933.5
20210922225715 95 150 5.0 13.0 0.00 0.00 0.00 16 933.5
20210922225214 96 181 5.0 10.0 0.00 0.00 0.00 15 933.7
20210922224714 95 223 4.0 10.0 0.00 0.00 0.00 16 933.7
20210922224215 95 0 0.0 7.0 0.00 0.00 0.00 16 933.7
20210922223714 95 138 2.0 12.0 0.00 0.00 0.00 16 933.8
20210922223305 95 145 1.0 13.0 0.00 0.00 0.00 16 933.9
20210922223216 95 145 1.0 13.0 0.00 0.00 0.00 16 933.9
20210922222714 95 149 7.0 13.0 0.00 0.00 0.00 16 934.0
20210922222215 95 144 2.0 9.0 0.00 0.00 0.00 15 934.1
20210922221713 95 145 4.0 11.0 0.00 0.00 0.00 16 934.2
20210922221247 95 185 4.0 11.0 0.00 0.00 0.00 16 934.3
20210922221215 95 185 4.0 11.0 0.00 0.00 0.00 16 934.3
20210922220714 95 101 1.0 12.0 0.00 0.00 0.00 16 934.3
20210922220214 95 172 4.0 13.0 0.00 0.00 0.00 16 934.4
20210922214234 95 154 4.0 13.0 0.00 0.00 0.00 16 934.5
20210922213643 95 128 5.0 12.0 0.00 0.00 0.00 16 934.7
20210922213143 95 141 4.0 12.0 0.00 0.00 0.00 16 934.7